Lapse_Rate
7.4 7.2 6.7 5.9 4.5 3.0 2.3 2.0 1.8 1.9 1.8 1.9 2.2 2.1 1.7 1.2 1.8 3.2 5.6 5.2 4.3 4.0 3.6 3.9 4.8 5.5 6.4 6.1 6.4 5.6 6.5 6.5 6.5 6.5 6.5 4.9 6.3 6.5 6.3 5.1 4.7 5.4 4.3 3.7 4.6
6.6 6.5 6.0 5.4 4.3 3.3 2.7 2.3 2.3 2.1 2.2 2.2 2.4 2.3 1.8 0.9 2.7 4.6 4.8 4.6 4.3 4.0 4.9 6.1 6.3 6.4 4.6 6.1 4.9 4.7 6.5 6.5 6.4 6.3 6.5 5.2 5.1 5.3 5.8 5.5 5.8 5.0 5.4 5.0 5.1
5.7 5.5 5.1 4.7 4.1 3.3 3.0 2.6 2.4 2.3 2.5 2.5 2.2 1.8 1.3 0.7 4.3 5.3 4.7 4.5 4.7 4.2 4.4 4.7 6.2 6.9 6.0 6.4 5.7 5.7 6.5 6.5 6.2 5.7 5.6 5.0 5.0 5.2 4.6 6.5 4.5 4.3 5.0 4.8 5.1
5.0 4.7 4.3 3.8 3.3 2.8 2.7 2.4 2.3 2.2 2.3 2.1 1.7 1.3 1.2 3.2 6.5 5.0 4.3 5.0 5.0 4.7 5.0 6.9 6.6 6.2 6.2 6.5 5.2 6.5 6.3 6.3 6.4 5.7 5.9 5.7 4.6 5.3 4.8 5.6 3.8 3.1 3.8 5.1 4.5
4.3 4.1 3.9 3.5 2.9 2.7 2.4 2.2 2.2 2.1 1.9 1.7 1.2 1.1 3.2 5.1 5.9 5.4 4.9 5.4 5.2 5.9 5.9 6.5 6.1 5.6 6.5 5.8 6.0 6.5 6.2 6.3 5.5 6.2 5.5 5.3 5.3 5.5 4.5 4.7 2.6 4.2 4.5 4.3 3.9
3.5 3.4 3.1 2.7 2.4 2.1 2.0 1.8 1.9 1.7 1.6 1.4 1.3 1.1 4.2 6.2 7.1 5.9 5.7 6.3 6.5 7.0 6.5 6.9 6.2 6.1 6.0 6.2 6.1 6.1 5.5 5.7 5.8 6.1 5.8 6.3 5.9 4.7 4.5 4.0 4.6 4.8 4.1 3.7 3.7
3.0 2.9 2.4 1.8 1.5 1.3 1.3 1.3 1.3 1.0 1.0 1.2 1.5 3.8 5.2 4.6 7.5 6.8 7.1 7.4 7.6 6.9 6.1 7.3 6.2 6.0 5.7 6.4 6.2 6.1 6.5 6.5 5.8 5.5 6.3 5.9 6.5 6.5 4.1 3.6 3.6 3.8 2.9 3.6 3.6
2.5 2.3 1.8 1.4 1.0 0.8 0.7 0.6 0.3 0.4 0.6 1.1 1.4 4.8 3.9 6.5 6.2 6.8 7.1 7.4 7.5 7.1 7.1 6.9 6.3 5.8 6.3 6.1 6.4 6.5 6.5 6.5 6.5 5.6 5.6 5.6 6.5 6.2 3.1 3.7 3.2 2.7 2.2 3.3 3.7
1.6 1.4 1.2 1.0 0.6 0.4 0.3 0.2 0.6 0.9 1.0 1.4 4.0 5.2 5.2 6.3 5.9 6.4 7.4 7.5 7.3 8.1 7.9 8.1 7.4 5.8 6.3 6.5 6.5 6.5 6.5 6.5 6.5 5.9 6.5 6.6 6.5 5.9 3.0 4.6 4.1 2.7 2.9 3.6 3.1
0.5 0.5 0.5 0.4 0.3 0.1 -0.3 0.1 1.7 1.0 3.7 4.7 6.1 5.7 6.4 6.3 6.6 7.4 7.4 7.8 7.4 7.0 7.1 7.0 5.1 6.5 6.5 6.5 6.5 6.5 6.5 6.5 6.5 6.5 6.5 6.5 6.5 6.5 4.5 5.2 4.5 3.7 3.9 3.8 4.0
0.2 0.2 -0.0 -0.1 -0.2 -0.7 -0.9 2.6 4.2 4.7 5.2 4.5 5.5 5.0 6.2 6.1 7.0 6.7 7.4 7.3 7.2 6.4 6.5 5.5 6.5 6.5 6.5 6.5 6.5 6.5 6.5 6.5 6.5 6.5 6.5 6.5 6.5 6.5 5.0 5.2 5.0 3.6 3.7 4.4 4.1
-0.1 -0.5 -0.8 -0.6 -0.4 -0.8 -1.6 4.5 6.1 5.9 5.1 4.5 5.5 6.0 7.5 6.5 6.3 6.0 6.7 5.9 6.0 6.5 6.1 6.5 6.5 6.5 6.5 6.5 6.5 6.5 6.5 6.5 6.5 6.5 6.5 6.5 6.5 6.5 6.1 6.0 5.6 5.5 5.1 4.7 4.3
-0.6 -0.9 -1.0 -0.9 -1.0 0.3 3.8 6.2 5.8 5.7 5.4 5.6 5.9 6.3 6.8 7.0 6.4 5.6 6.0 6.0 6.2 6.5 6.5 6.5 6.5 6.4 6.5 6.5 6.5 6.5 6.5 6.5 6.5 6.5 6.5 6.5 6.5 6.5 6.4 5.4 5.4 5.9 5.0 4.3 4.0
-0.4 -1.1 -1.2 -1.6 2.2 3.2 5.7 6.1 5.8 5.0 6.5 6.5 6.5 6.7 6.6 6.6 6.0 6.4 5.3 5.7 6.1 6.5 6.5 6.5 6.3 6.5 6.5 6.5 6.5 6.5 6.5 6.5 6.5 6.5 6.5 6.5 6.5 6.5 6.5 6.5 6.5 5.5 5.5 4.7 4.8
-0.4 -0.7 -1.3 -2.4 1.2 4.8 5.8 5.7 5.3 4.1 6.5 6.5 6.5 7.5 6.5 5.8 6.3 6.5 6.6 6.3 6.5 6.5 6.5 6.5 6.5 6.5 6.5 6.5 6.5 6.5 6.5 6.5 6.5 6.5 6.5 6.5 6.5 6.5 6.5 6.5 6.5 6.1 5.1 5.2 4.7
-0.7 -0.8 -1.2 -0.6 0.2 3.5 5.5 4.5 3.7 6.5 6.5 6.5 6.3 6.5 6.4 6.2 6.4 6.6 6.2 6.4 6.3 6.5 6.5 6.5 6.0 6.4 6.5 6.5 6.5 6.5 6.5 6.5 6.5 6.5 6.5 6.5 6.5 6.5 6.5 6.5 6.5 5.9 4.2 3.3 4.2
-0.9 -1.0 -1.4 2.0 4.5 5.4 4.0 3.0 6.5 6.5 6.5 6.5 6.5 6.5 6.5 6.5 6.5 6.5 6.5 6.5 6.5 6.5 6.5 6.5 6.5 6.5 6.1 6.5 6.5 6.5 6.5 6.5 6.5 6.5 6.5 6.5 6.5 6.5 6.5 6.5 6.5 6.5 2.0 1.7 2.7
-1.1 -0.6 1.3 3.5 4.3 4.6 2.8 6.1 6.5 6.5 6.5 6.5 6.5 6.5 6.5 6.5 6.5 6.5 6.5 6.5 6.5 6.5 6.5 6.5 6.5 6.5 6.5 6.5 6.5 6.5 6.5 6.5 6.5 6.5 6.5 6.5 6.5 6.5 6.5 5.9 3.5 1.8 -0.1 -0.9 1.0
-1.0 1.3 2.8 3.9 5.0 3.7 3.2 6.5 6.5 6.5 6.5 6.5 6.5 6.5 6.5 6.5 6.5 6.5 6.5 6.5 6.5 6.5 6.5 6.5 6.5 6.5 6.5 6.5 6.5 6.5 6.5 6.5 6.5 6.5 6.5 6.5 6.5 6.5 6.5 6.5 6.0 4.1 1.8 1.0 0.7
-1.7 1.6 4.7 5.6 6.5 3.2 5.7 6.5 6.5 6.2 6.4 6.5 6.5 6.5 6.5 6.5 6.5 6.5 6.5 6.5 6.5 6.4 6.2 6.5 6.5 6.5 6.5 6.4 6.3 6.5 6.5 6.5 6.5 6.5 6.5 6.5 6.5 6.5 6.5 6.5 6.5 6.5 4.3 1.4 0.6
1.3 3.7 4.5 6.8 4.4 3.0 6.5 6.5 6.5 6.0 5.7 6.5 6.5 6.5 6.5 6.5 6.5 6.5 6.5 6.5 6.5 6.5 6.0 6.5 6.5 6.5 6.5 6.5 6.5 6.5 6.5 6.5 6.5 6.5 6.5 6.5 6.5 6.5 6.5 6.5 6.5 6.5 3.9 1.9 1.4
1.1 5.7 4.8 4.5 4.5 4.0 6.5 6.5 5.4 6.4 6.0 6.3 6.2 6.5 6.5 6.5 6.5 6.5 6.5 6.5 5.7 6.2 6.5 6.5 6.5 6.5 6.5 6.5 6.5 6.5 6.5 6.5 6.5 6.5 6.5 6.5 6.5 6.5 6.5 6.5 6.1 5.6 3.3 1.0 1.4
1.9 3.7 4.3 4.2 6.5 6.5 5.8 6.5 6.5 6.5 6.5 6.5 6.5 6.5 6.5 6.5 6.5 6.5 6.5 6.4 6.7 6.5 6.5 6.5 6.5 6.5 6.5 6.5 6.5 6.5 6.5 6.5 6.5 6.5 6.5 6.5 6.5 6.5 6.5 6.5 4.4 4.4 2.7 2.2 2.0
2.4 6.5 2.6 3.2 3.2 6.2 6.5 6.5 6.5 6.2 6.1 6.3 6.5 6.3 6.5 6.5 6.5 6.5 6.5 6.5 6.5 6.6 7.0 6.7 6.5 6.5 6.5 6.5 6.5 6.5 6.5 6.5 6.5 6.5 6.5 6.5 6.5 6.5 6.5 6.5 6.4 4.2 2.5 1.8 2.2
3.3 5.4 6.1 6.5 5.8 6.1 6.2 6.5 6.5 6.5 6.1 5.7 6.5 6.5 6.5 6.5 6.5 6.5 6.5 6.5 6.6 6.9 6.6 6.5 6.5 6.5 6.5 6.5 6.5 6.5 6.5 6.5 6.5 6.5 6.5 6.5 6.5 6.5 6.5 6.5 5.8 2.4 1.9 1.8 2.3
4.7 5.0 4.7 5.0 5.4 6.0 6.3 6.5 6.5 6.5 6.5 6.5 6.5 6.5 6.5 6.5 6.5 6.5 6.5 6.5 6.5 6.5 6.5 6.5 6.5 6.5 6.5 6.5 6.5 6.5 6.5 6.5 6.5 6.5 6.5 6.5 6.5 6.5 5.7 3.8 4.8 3.5 3.9 3.9 4.2
4.5 5.3 7.1 6.5 5.8 6.5 6.5 6.5 6.5 6.5 6.6 6.7 6.4 6.5 6.5 6.5 6.0 5.6 5.1 5.7 6.3 6.5 6.5 6.5 6.5 6.5 6.5 6.5 6.5 6.5 6.5 6.5 6.5 6.5 6.5 6.5 6.5 6.5 6.5 6.5 6.2 4.1 2.7 4.4 3.5
Wind_Speed
4 2 1 1 2 4 5 7 6 7 8 9 10 10 13 14 15 1 2 2 2 7 9 6 5 5 1 2 1 3 4 2 4 7 6 6 5 2 1 6 4 2 5 7 10
8 6 5 3 3 5 5 7 7 7 7 8 10 10 12 12 2 5 2 4 3 7 4 2 3 3 2 1 1 4 3 3 2 4 6 7 7 7 5 4 4 5 5 7 7
9 8 7 6 5 5 5 6 6 6 7 8 10 11 11 9 2 4 6 5 3 5 4 5 5 2 2 2 3 3 4 2 2 3 1 9 7 6 9 4 8 10 9 9 6
10 9 7 6 6 6 6 6 7 8 8 10 12 13 12 2 1 3 8 4 5 6 4 3 3 2 2 4 5 1 3 3 2 3 2 7 8 7 7 5 9 14 12 7 9
12 11 10 9 9 8 8 8 8 9 9 11 11 11 4 1 4 6 7 7 6 3 5 4 4 4 3 5 4 4 4 3 5 1 5 5 6 7 6 3 12 12 10 10 9
12 13 12 12 12 12 13 12 11 11 12 11 10 11 1 2 4 12 7 4 6 2 5 3 3 4 4 2 5 1 6 6 5 5 4 4 4 8 7 9 9 10 10 10 11
13 12 13 14 14 15 15 15 15 15 15 12 8 4 3 8 2 7 5 2 1 3 4 3 3 3 4 0 2 3 3 2 6 6 5 3 5 10 6 10 11 10 9 9 10
12 14 15 16 16 16 16 17 18 18 16 12 5 1 5 1 3 3 4 4 5 6 2 4 4 3 1 1 1 3 3 2 5 10 5 8 9 10 10 12 12 12 10 9 10
13 14 15 15 16 17 19 20 18 14 11 10 3 2 7 1 2 6 5 3 6 3 2 4 1 4 2 4 2 2 4 7 4 11 5 6 8 7 13 17 14 11 12 12 10
13 13 13 14 15 17 22 16 10 11 5 5 5 4 4 3 4 5 3 2 4 4 1 1 1 1 1 3 6 7 5 5 7 9 8 8 14 3 9 14 16 14 15 13 16
13 12 11 12 12 13 11 4 4 2 3 8 5 4 5 4 3 3 5 2 2 3 5 5 3 8 11 9 7 3 4 6 6 6 9 14 15 14 12 10 13 14 15 18 19
17 15 14 13 12 11 1 3 2 4 7 11 16 8 2 5 3 6 8 6 5 6 4 2 8 11 10 10 12 12 9 7 7 3 9 8 18 15 11 17 21 22 18 19 14
20 19 14 13 14 2 2 1 1 4 3 7 6 6 4 4 4 7 11 6 5 6 8 8 8 9 11 9 8 12 8 4 6 2 4 5 8 9 13 14 16 20 19 20 21
22 21 19 20 4 4 1 2 3 3 3 4 2 4 4 3 5 6 9 7 5 10 8 9 15 13 6 7 7 8 4 5 7 3 5 5 11 6 10 12 11 19 18 19 18
23 22 19 8 3 3 4 5 4 4 4 3 3 3 4 6 1 2 1 2 6 5 4 9 5 7 8 10 7 7 4 3 3 3 2 3 3 5 7 8 13 16 20 19 20
29 23 21 3 1 5 6 5 4 5 5 3 3 3 4 4 3 2 2 3 3 5 11 8 4 5 8 2 3 7 4 3 4 3 5 7 7 20 8 15 8 5 13 19 18
31 29 10 7 2 5 5 4 4 3 3 2 4 5 6 5 5 5 4 4 6 2 6 4 11 4 5 4 2 3 7 2 3 1 10 11 9 23 7 9 9 8 10 15 17
33 30 5 5 6 7 3 5 1 5 5 6 10 4 6 5 8 10 5 5 8 4 3 5 7 14 9 16 10 11 11 7 8 6 10 6 8 9 15 21 8 10 9 10 14
26 3 1 4 10 3 4 3 7 4 2 8 8 5 4 5 5 7 10 8 9 17 9 5 8 6 8 8 17 7 11 12 3 3 2 6 8 9 5 4 7 9 9 12 13
3 3 3 6 8 4 4 5 4 4 7 6 5 6 6 8 5 6 4 5 10 15 20 7 16 12 7 2 5 8 7 3 3 6 7 8 7 8 11 19 11 8 11 11 10
2 3 3 6 4 4 3 6 5 8 9 5 5 10 6 5 9 8 7 8 4 8 9 16 7 15 2 6 16 5 9 5 5 6 7 9 7 10 17 11 14 17 11 12 13
4 3 4 3 3 2 3 3 9 11 9 9 11 12 13 12 19 18 21 9 14 6 12 8 11 19 28 9 11 16 12 23 8 5 7 15 17 4 9 10 11 13 14 11 12
4 3 4 5 0 3 7 9 13 7 8 7 5 7 9 8 10 6 10 13 16 16 15 8 6 11 14 3 2 7 13 7 19 1 18 17 17 11 16 14 10 12 12 12 13
3 4 4 4 1 4 6 7 5 12 9 12 11 10 10 13 13 10 14 7 16 14 17 10 6 15 17 17 6 7 12 19 15 12 25 22 28 10 6 7 7 9 10 13 15
3 2 2 4 5 8 4 5 11 9 5 8 7 12 14 9 15 13 16 19 10 14 5 5 7 11 21 23 19 21 20 26 26 30 21 29 26 25 18 13 12 9 10 9 11
3 3 4 4 5 6 6 4 12 8 11 6 14 17 14 11 13 15 12 9 8 3 6 2 6 16 24 23 25 26 28 25 27 30 31 32 32 7 12 9 8 12 13 14 15
3 4 3 3 3 4 4 4 15 17 4 15 13 15 14 16 9 8 8 11 13 13 15 6 4 4 11 20 18 20 18 25 25 23 22 23 34 12 20 18 19 11 12 15 14
Wind_Direction
70 57 32 271 277 291 297 292 297 302 305 307 308 321 319 323 323 246 277 228 302 328 336 283 289 272 293 239 248 84 58 290 314 162 168 166 129 78 42 95 52 66 131 157 168
51 50 45 21 345 316 303 299 302 307 311 315 314 322 321 330 293 259 194 240 300 344 325 294 346 208 328 202 260 101 113 242 347 315 155 151 136 141 111 118 75 76 79 135 160
36 36 35 23 7 343 328 322 320 319 316 319 316 319 318 322 322 209 202 240 319 304 264 300 308 13 217 156 231 200 177 253 17 6 123 156 155 156 132 209 185 169 175 171 175
18 23 26 16 4 351 336 334 324 322 321 325 322 321 314 240 188 192 202 234 269 277 280 257 254 279 199 195 237 152 187 110 156 334 92 170 147 165 158 220 193 160 167 157 158
7 7 8 2 353 346 338 332 324 319 322 323 321 323 326 219 249 190 208 248 270 252 249 263 226 196 241 208 171 197 209 145 117 295 294 154 163 181 150 112 112 144 155 162 172
1 358 1 354 347 345 337 330 320 318 318 313 315 316 207 273 152 168 205 263 253 276 287 248 260 241 245 247 153 296 160 157 156 208 264 194 216 145 197 146 136 151 173 176 173
352 351 352 348 345 341 333 324 317 316 307 301 309 306 304 241 171 163 188 220 203 263 310 283 356 351 327 340 208 145 142 195 200 197 224 93 270 226 175 165 168 182 197 196 187
347 349 347 344 340 334 327 319 315 309 303 293 290 322 247 353 334 171 245 237 220 261 237 304 333 283 228 212 35 167 127 203 246 172 228 124 258 243 183 169 192 194 203 207 203
352 346 342 335 332 329 321 312 302 301 278 290 296 181 272 129 187 216 210 239 201 225 255 251 312 221 17 111 26 267 224 219 307 188 146 162 256 253 187 182 198 200 205 208 206
354 345 335 330 330 330 321 298 284 325 264 240 261 4 250 240 157 158 211 271 207 198 221 255 202 143 45 111 208 206 225 235 207 216 178 201 247 226 181 183 202 205 209 207 206
354 342 333 329 328 338 356 1 12 332 272 205 193 229 153 108 109 220 174 188 265 169 191 214 147 211 210 209 222 225 211 235 264 237 167 218 227 227 209 204 215 215 210 213 211
2 348 339 331 325 322 239 359 91 204 300 244 245 256 205 174 180 241 158 160 180 210 233 297 232 229 222 223 227 245 257 266 296 198 178 236 241 242 204 216 215 213 214 215 208
357 351 336 324 318 291 213 357 347 18 272 288 211 206 172 136 243 228 145 180 208 213 217 191 230 228 218 252 205 233 219 237 236 317 262 277 281 241 250 232 226 224 218 211 204
355 350 344 326 345 329 66 296 330 89 3 263 230 259 108 138 259 196 179 175 229 210 223 234 234 235 200 230 204 236 193 237 244 136 240 155 283 275 284 269 221 225 209 211 203
347 342 341 345 291 30 291 318 328 55 353 159 129 322 159 173 235 279 132 91 227 242 160 236 168 179 198 213 193 235 155 164 206 209 333 207 304 254 253 274 267 223 213 207 200
341 340 337 90 239 250 317 334 49 37 262 190 126 186 115 275 294 23 17 30 255 248 264 232 278 185 198 128 194 154 101 45 33 84 273 173 187 274 222 238 254 239 196 201 195
335 326 320 309 209 318 346 45 31 144 295 208 233 176 196 210 226 193 183 199 207 178 245 262 240 216 165 140 23 160 102 288 285 181 239 183 206 249 262 248 217 197 208 193 189
328 317 242 230 305 335 54 57 88 267 303 46 346 204 190 211 240 197 196 237 239 286 322 204 285 176 196 201 187 198 166 172 204 210 259 196 230 248 222 246 221 204 185 161 173
326 334 271 266 222 69 66 117 208 221 51 350 341 279 249 265 244 222 216 211 199 194 200 241 254 214 200 179 175 194 212 209 286 168 292 227 265 299 277 233 216 180 160 174 178
337 331 302 339 142 67 71 242 254 332 318 332 241 239 280 298 341 334 260 234 232 207 205 233 275 255 244 175 239 160 167 100 195 215 227 246 233 228 225 235 216 209 196 187 180
358 26 269 332 65 59 183 233 288 288 285 289 300 281 271 295 295 290 246 303 289 322 243 236 213 256 137 226 190 191 220 219 179 169 194 256 249 207 221 219 201 204 198 188 189
344 44 283 41 48 232 206 255 347 338 336 317 293 276 269 270 274 273 277 261 356 353 314 277 236 246 238 215 204 230 225 207 204 251 245 249 254 254 194 188 180 199 201 200 190
346 282 311 75 79 310 310 315 311 308 358 343 301 349 334 323 313 308 321 355 35 21 1 339 309 275 255 304 309 221 231 225 236 91 234 240 254 217 254 268 221 196 198 192 188
359 6 334 21 334 358 346 285 325 332 324 326 306 310 327 310 298 289 305 313 328 327 351 328 256 270 279 262 200 197 218 222 215 234 246 243 258 248 260 244 205 208 191 188 194
25 19 316 332 341 330 307 298 310 317 298 326 324 355 357 326 308 291 309 305 307 309 14 32 292 315 317 318 321 309 235 219 216 228 232 251 244 245 238 236 231 212 195 190 188
60 19 356 292 302 330 324 311 302 344 353 326 331 324 330 313 314 327 345 332 292 278 309 227 274 299 289 298 317 315 303 294 230 233 239 245 256 181 231 230 230 225 213 196 198
343 349 309 231 295 320 243 329 323 327 308 319 313 316 312 307 302 290 281 266 245 267 281 268 245 261 269 274 281 294 297 285 292 255 241 238 247 186 236 241 245 239 208 206 198